Regional Weather Roundup
Issued by NWS

Home | Current Version | Previous Version | Graphics & Text | Print | Product List | Glossary On
Versions: 1 2 3 4 5 6 7 8 9 10 11 12 13 14 15 16 17 18 19 20 21 22 23 24 25 26 27 28 29 30 31 32 33 34 35 36 37 38 39 40 41 42 43 44 45 46 47 48 49 50
000
ASUS45 KBOU 302107
RWRCO

WEATHER ROUNDUP FOR COLORADO
NATIONAL WEATHER SERVICE DENVER/BOULDER CO
300 PM MDT WED JUL 30 2014

NOTE: "FAIR" INDICATES FEW OR NO CLOUDS BELOW 12000 FEET WITH NO
SIGNIFICANT WEATHER AND/OR OBSTRUCTIONS TO VISIBILITY.

COZ001>005-013-030-031-302200-
...NORTHWEST COLORADO...

CITY           SKY/WX    TMP DP  RH WIND       PRES   REMARKS
CRAIG          CLOUDY    65  55  70 NE9       30.28S
HAYDEN         PTSUNNY   66  52  59 E5        30.30S
MEEKER         MOSUNNY   75  52  44 N10       30.27F
MOUNT WERNER   NOT AVBL
STEAMBOAT SPGS CLOUDY    63  55  75 NW8       30.32S
WALDEN         CLOUDY    55  45  67 CALM      30.43R
$$

COZ006>008-011-302200-
...WEST CENTRAL VALLEYS...

CITY           SKY/WX    TMP DP  RH WIND       PRES   REMARKS
GRAND JUNCTION LGT RAIN  82  52  35 W9        30.15F
MONTROSE       PTSUNNY   81  52  36 N9        30.23S
EAGLE          LGT RAIN  64  57  77 VRB6      30.30R
RIFLE          PTSUNNY   78  52  40 VRB3      30.20F
DELTA          MOSUNNY   87  50  27 SW13G21   30.17F
NUCLA          MOSUNNY   79  50  36 NW13      30.27S
$$

COZ017>023-064>068-302200-
...SOUTHWEST COLORADO...

CITY           SKY/WX    TMP DP  RH WIND       PRES   REMARKS
DURANGO        PTSUNNY   84  45  25 W17G25    30.23F
CORTEZ         SUNNY     86  45  23 W12G20    30.20F
PAGOSA SPRINGS CLOUDY    71  51  47 E6        30.32F
TELLURIDE      PTSUNNY   68  48  49 NW6G20    30.44S
WOLF CREEK PAS NOT AVBL
$$

COZ009-010-012-014-032>034-037-058>063-302200-
...CENTRAL COLORADO...

CITY           SKY/WX    TMP DP  RH WIND       PRES   REMARKS
ASPEN          CLOUDY    64  50  60 S3        30.35S
BUENA VISTA    LGT RAIN  63  51  65 S10       30.38S
COPPER MTN     CLOUDY    54  41  62 W13       30.64S
BERTHOUD PASS  LGT RAIN  37  36  93 E18G25    30.69R VSB<1/4
COTTONWOOD PAS CLOUDY    59  48  67 S7        30.50S
GUNNISON       MOSUNNY   73  48  40 N13       30.34S
KREMMLING      CLOUDY    63  52  67 S3        30.37S
LEADVILLE      CLOUDY    59  44  57 S17       30.46S
MONARCH PASS   CLOUDY    52  45  76 SE3       30.74S
SALIDA         CLOUDY    65  57  74 SE16G22   30.44S
SUNLIGHT       PTSUNNY   61  50  67 CALM      30.58S
WILKERSON PASS HVY RAIN  45  43  93 E6        30.64R VSB<1/4
$$

COZ069>075-302200-
...SAN LUIS VALLEY/SANGRE DE CRISTO MOUNTAINS...

CITY           SKY/WX    TMP DP  RH WIND       PRES   REMARKS
ALAMOSA        PTSUNNY   77  48  35 NE6       30.30F
LA VETA PASS   DRZL/FOG  50  48  93 E10       30.54S VSB 1/4
SAGUACHE       PTSUNNY   70  50  49 S8        30.33F
$$

COZ035-036-038>040-302200-
...NORTHERN COLORADO FRONT RANGE...

CITY           SKY/WX    TMP DP  RH WIND       PRES   REMARKS
DENVER INTL AP LGT RAIN  60  57  89 NE7       30.35S
DMNS CITY PARK   N/A     61  57  88 N3        30.34S
AURORA         CLOUDY    59  59 100 E6        30.36S FOG
FRONT RANGE AP DRIZZLE   63  59  88 E9        30.36
ERIE MUNI ARPT DRIZZLE   61  58  91 N7        30.34S
BOULDER MUN AP   N/A    N/A N/A N/A MISG        N/A
CENTENNIAL     LGT RAIN  60  55  83 E5        30.35S
BROOMFIELD     CLOUDY    61  57  88 NW8       30.36S
FORT COLLINS   CLOUDY    61  57  88 NE5       30.36S
LONGMONT       CLOUDY    64  59  84 N8        30.36S HAZE
$$

COZ041-046-047-076>085-087-088-302200-
...PIKES PEAK/PALMER DIVIDE AND SOUTHERN FOOTHILLS...

CITY           SKY/WX    TMP DP  RH WIND       PRES   REMARKS
COLO. SPRINGS  RAIN      58  55  90 CALM      30.38S FOG
A. F. ACADEMY  DRIZZLE   57  57 100 S5        30.38S
ELLICOTT       CLOUDY    63  54  72 E12       30.36R
FALCON         CLOUDY    59  56  89 E9        30.41R
FORT CARSON    RAIN      59  59 100 CALM      30.36R FOG
LIMON          LGT RAIN  60  55  83 E7        30.35R
MONUMENT HILL  DRIZZLE   54  52  94 E5        30.40R
TRINIDAD       LGT RAIN  61  58  90 NE12      30.33R FOG
$$

COZ042>045-048>051-090-091-302200-
...NORTHEAST COLORADO...

CITY           SKY/WX    TMP DP  RH WIND       PRES   REMARKS
GREELEY ARPT   NOT AVBL
AKRON          LGT RAIN  62  57  83 SW6       30.33R
BURLINGTON     CLOUDY    66  53  63 E8        30.29R
WRAY             N/A     74  55  51 SE5       30.27S
STERLING       CLOUDY    68  63  83 W7        30.29S
HOLYOKE        MOSUNNY   77  55  47 S3        30.27R
FORT MORGAN    CLOUDY    62  59  90 SE7       30.34R
$$

COZ086-089-092>099-302200-
...SOUTHEAST COLORADO...

CITY           SKY/WX    TMP DP  RH WIND       PRES   REMARKS
PUEBLO         LGT RAIN  62  61  96 S5        30.30S FOG
LA JUNTA       CLOUDY    68  59  73 NE12      30.27S
LAMAR          CLOUDY    67  59  75 E13       30.25R
SPRINGFIELD      N/A     62  59  90 NE18      30.25S
$$


USA.gov is the U.S. government's official web portal to all federal, state and local government web resources and services.